Home > Weather > Lennestadt > Past weeks

Flag for Germany Past Weather in Lennestadt, North Rhine-Westphalia, Germany — Yesterday and Last 2 Weeks

Now
77 °F

Passing clouds.


Feels Like: 79 °F
Forecast: 63 / 86 °F
Wind: 8 mph from Southeast

Location: Dortmund / Wickede

Current Time: Aug 28, 2016 at 12:32:27 AM

Latest Report: Aug 27, 2016 at 9:50 PM


Visibility: N/A

Pressure: 29.95 "Hg

Humidity: 47%

Dew Point: 55 °F

Location of LennestadtLocation

Past Weather in Lennestadt — Graph

°F

Lennestadt Temperature Yesterday

Maximum temperature yesterday: 86 °F (at 3:50 PM)
Minimum temperature yesterday: 61 °F (at 6:50 AM)
Average temperature yesterday: 75 °F

High & Low Weather Summary for the Past Weeks

 TemperatureHumidityPressure
High91 °F (Aug 25, 3:50 PM)88% (Aug 13, 5:20 AM)30.36 "Hg (Aug 13, 5:20 AM)
Low48 °F (Aug 16, 6:20 AM)16% (Aug 25, 3:50 PM)29.80 "Hg (Aug 18, 2:50 PM)
Average69 °F55%30.07 "Hg
* Reported Aug 12 9:20 PM — Aug 27 9:50 PM, Lennestadt, Weather by CustomWeather, © 2016

Note: Actual official high and low records may vary slightly from our data, if they occured in-between our weather recording intervals... More about our weather records

Advertising

Lennestadt Weather History for the Previous 24 Hours

Scroll right to see more
 ConditionsComfort  
Time TempWeatherWind HumidityBarometerVisibility
9:50 PM
Sat, Aug 27
77 °FPassing clouds.8 mph47%29.95 "HgN/A
9:20 PM79 °FScattered clouds.8 mph45%29.98 "HgN/A
8:50 PM79 °FSunny.6 mph48%29.98 "Hg10 mi
8:20 PM79 °FSunny.7 mph51%29.98 "Hg10 mi
7:50 PM79 °FSunny.5 mph58%29.98 "Hg10 mi
7:20 PM81 °FPassing clouds.7 mph58%30.01 "HgN/A
6:50 PM82 °FPassing clouds.7 mph51%30.01 "HgN/A
6:20 PM82 °FPassing clouds.7 mph51%30.01 "HgN/A
5:50 PM82 °FPassing clouds.5 mph51%30.01 "HgN/A
5:20 PM82 °FPassing clouds.5 mph51%30.01 "HgN/A
4:50 PM84 °FPassing clouds.5 mph48%30.01 "HgN/A
4:20 PM84 °FPassing clouds.7 mph45%30.04 "HgN/A
3:50 PM86 °FPassing clouds.6 mph43%30.04 "HgN/A
3:20 PM84 °FPassing clouds.6 mph45%30.04 "HgN/A
2:50 PM84 °FPassing clouds.6 mph45%30.07 "HgN/A
2:20 PM82 °FPassing clouds.6 mph48%30.07 "HgN/A
1:50 PM82 °FPassing clouds.6 mph48%30.07 "HgN/A
1:20 PM81 °FPassing clouds.6 mph48%30.09 "HgN/A
12:50 PM79 °FPassing clouds.7 mph51%30.09 "HgN/A
12:20 PM79 °FPassing clouds.6 mph54%30.09 "HgN/A
11:50 AM75 °FPassing clouds.6 mph57%30.09 "HgN/A
11:20 AM73 °FPassing clouds.6 mph57%30.09 "HgN/A
10:50 AM72 °FPassing clouds.7 mph61%30.09 "HgN/A
10:20 AM70 °FPassing clouds.8 mph64%30.09 "HgN/A
9:50 AM70 °FPassing clouds.6 mph64%30.12 "HgN/A
9:20 AM68 °FPassing clouds.7 mph64%30.12 "HgN/A
8:50 AM66 °FPassing clouds.6 mph68%30.12 "HgN/A
8:20 AM64 °FPassing clouds.6 mph73%30.12 "HgN/A
7:50 AM63 °FSunny.5 mph77%30.12 "Hg10 mi
7:20 AM63 °FClear.5 mph77%30.09 "Hg10 mi
6:50 AM61 °FClear.5 mph83%30.09 "Hg10 mi
6:20 AM63 °FClear.3 mph77%30.09 "Hg10 mi
5:50 AM63 °FClear.3 mph77%30.09 "Hg10 mi
5:20 AM64 °FClear.3 mph73%30.09 "Hg10 mi
Weather by CustomWeather, © 2016

See weather overviewHow to use our weather pages